• Em Portugal
  • Lista de países
  • Para 7 dias
  • Temperatura da água
  • Mapas de satélite
  • Mapa do tempo
  • Widgets de tempo
  • user-avatar
    Iniciar Sessão

    Previsão horária em Sapporo

    Hoje, 14 Novembro, Quarta-feira

    Tempo Temperatura Precipitação Vento Pressão Humidade
    00:00 +4°C° 0 mm 2 m/s 759 mmHg 86%
    01:00 +4°C° 0 mm 2 m/s 760 mmHg 85%
    02:00 +4°C° 0 mm 2 m/s 760 mmHg 84%
    03:00 +4°C° 0 mm 2 m/s 759 mmHg 85%
    04:00 +4°C° 0.1 mm 2 m/s 759 mmHg 84%
    05:00 +4°C° 0.1 mm 2 m/s 760 mmHg 84%
    06:00 +4°C° 0.1 mm 2 m/s 760 mmHg 83%
    07:00 +5°C° 0.2 mm 2 m/s 760 mmHg 81%
    08:00 +6°C° 0.2 mm 2 m/s 760 mmHg 78%
    09:00 +7°C° 0.2 mm 2 m/s 760 mmHg 76%
    10:00 +7°C° 0.3 mm 3 m/s 760 mmHg 75%
    11:00 +7°C° 0.3 mm 3 m/s 760 mmHg 75%
    12:00 +7°C° 0.3 mm 3 m/s 760 mmHg 74%
    13:00 +7°C° 0.3 mm 3 m/s 760 mmHg 75%
    14:00 +7°C° 0.3 mm 3 m/s 760 mmHg 75%
    15:00 +7°C° 0.3 mm 3 m/s 760 mmHg 76%
    16:00 +5°C° 0.1 mm 3 m/s 760 mmHg 78%
    17:00 +4°C° 0.1 mm 3 m/s 760 mmHg 80%
    18:00 +4°C° 0.1 mm 3 m/s 761 mmHg 82%
    19:00 +3°C° 0.1 mm 3 m/s 761 mmHg 82%
    20:00 +4°C° 0.1 mm 2 m/s 761 mmHg 82%
    21:00 +4°C° 0.1 mm 2 m/s 761 mmHg 82%
    22:00 +4°C° 0.1 mm 2 m/s 761 mmHg 82%
    23:00 +4°C° 0.1 mm 2 m/s 761 mmHg 82%

    Amanhã, 15 Novembro, Quinta-feira

    Tempo Temperatura Precipitação Vento Pressão Humidade
    00:00 +4°C° 0.1 mm 2 m/s 761 mmHg 82%
    01:00 +4°C° 0.1 mm 2 m/s 762 mmHg 83%
    02:00 +4°C° 0.1 mm 2 m/s 762 mmHg 83%
    03:00 +4°C° 0.1 mm 2 m/s 762 mmHg 83%
    04:00 +4°C° 0 mm 2 m/s 762 mmHg 83%
    05:00 +4°C° 0 mm 2 m/s 762 mmHg 83%
    06:00 +4°C° 0 mm 2 m/s 762 mmHg 83%
    07:00 +5°C° 0 mm 2 m/s 762 mmHg 80%
    08:00 +6°C° 0 mm 2 m/s 762 mmHg 77%
    09:00 +7°C° 0 mm 2 m/s 763 mmHg 74%
    10:00 +7°C° 0 mm 3 m/s 763 mmHg 72%
    11:00 +8°C° 0 mm 3 m/s 763 mmHg 70%
    12:00 +8°C° 0 mm 3 m/s 763 mmHg 68%
    13:00 +8°C° 0 mm 3 m/s 762 mmHg 70%
    14:00 +8°C° 0 mm 3 m/s 762 mmHg 71%
    15:00 +8°C° 0 mm 3 m/s 762 mmHg 72%
    16:00 +7°C° 0 mm 2 m/s 763 mmHg 75%
    17:00 +5°C° 0 mm 2 m/s 763 mmHg 79%
    18:00 +5°C° 0 mm 1 m/s 763 mmHg 82%
    19:00 +5°C° 0 mm 1 m/s 763 mmHg 83%
    20:00 +5°C° 0 mm 1 m/s 763 mmHg 84%
    21:00 +5°C° 0 mm 1 m/s 763 mmHg 85%
    22:00 +4°C° 0 mm 2 m/s 763 mmHg 85%
    23:00 +4°C° 0 mm 2 m/s 763 mmHg 86%

    Depois de amanhã, 16 Novembro, Sexta-feira

    Tempo Temperatura Precipitação Vento Pressão Humidade
    00:00 +3°C° 0 mm 2 m/s 763 mmHg 87%
    01:00 +3°C° 0 mm 2 m/s 763 mmHg 87%
    02:00 +3°C° 0 mm 2 m/s 762 mmHg 88%
    03:00 +3°C° 0 mm 2 m/s 762 mmHg 88%
    04:00 +3°C° 0 mm 2 m/s 762 mmHg 88%
    05:00 +4°C° 0 mm 2 m/s 762 mmHg 88%
    06:00 +3°C° 0 mm 3 m/s 762 mmHg 88%
    07:00 +4°C° 0 mm 3 m/s 761 mmHg 85%
    08:00 +5°C° 0 mm 3 m/s 761 mmHg 83%
    09:00 +7°C° 0 mm 3 m/s 761 mmHg 81%
    10:00 +8°C° 0.2 mm 3 m/s 761 mmHg 80%
    11:00 +9°C° 0.2 mm 3 m/s 760 mmHg 80%
    12:00 +10°C° 0.2 mm 4 m/s 760 mmHg 80%
    13:00 +10°C° 0.6 mm 4 m/s 759 mmHg 82%
    14:00 +8°C° 0.6 mm 4 m/s 759 mmHg 84%
    15:00 +8°C° 0.6 mm 4 m/s 759 mmHg 86%
    16:00 +8°C° 0.4 mm 4 m/s 758 mmHg 86%
    17:00 +8°C° 0.4 mm 4 m/s 758 mmHg 87%
    18:00 +7°C° 0.4 mm 4 m/s 758 mmHg 87%
    19:00 +7°C° 0.7 mm 4 m/s 758 mmHg 89%
    20:00 +6°C° 0.7 mm 4 m/s 758 mmHg 90%
    21:00 +6°C° 0.7 mm 4 m/s 758 mmHg 92%
    22:00 +5°C° 0.7 mm 4 m/s 758 mmHg 90%
    23:00 +3°C° 0.7 mm 5 m/s 758 mmHg 87%

    17 Novembro, Sábado

    Tempo Temperatura Precipitação Vento Pressão Humidade
    00:00 +2°C° 0.7 mm 5 m/s 759 mmHg 85%
    01:00 +2°C° 0 mm 5 m/s 759 mmHg 84%
    02:00 +1°C° 0 mm 4 m/s 759 mmHg 83%
    03:00 0°C° 0 mm 4 m/s 760 mmHg 82%
    04:00 0°C° 0 mm 4 m/s 760 mmHg 82%
    05:00 -1°C° 0 mm 4 m/s 760 mmHg 82%
    06:00 0°C° 0 mm 3 m/s 761 mmHg 82%
    07:00 0°C° 0.1 mm 4 m/s 761 mmHg 79%
    08:00 0°C° 0.1 mm 4 m/s 761 mmHg 76%
    09:00 +1°C° 0.1 mm 4 m/s 762 mmHg 73%
    10:00 +1°C° 0.1 mm 4 m/s 761 mmHg 70%
    11:00 +3°C° 0.1 mm 4 m/s 761 mmHg 68%
    12:00 +2°C° 0.1 mm 5 m/s 761 mmHg 66%
    13:00 +3°C° 0.1 mm 4 m/s 761 mmHg 67%
    14:00 +3°C° 0.1 mm 4 m/s 761 mmHg 68%
    15:00 +3°C° 0.1 mm 4 m/s 761 mmHg 69%
    16:00 +1°C° 0.1 mm 4 m/s 761 mmHg 72%
    17:00 +2°C° 0.1 mm 3 m/s 761 mmHg 75%
    18:00 +1°C° 0.1 mm 3 m/s 761 mmHg 78%
    19:00 +1°C° 0.1 mm 3 m/s 761 mmHg 78%
    20:00 +1°C° 0.1 mm 3 m/s 761 mmHg 79%
    21:00 +1°C° 0.1 mm 3 m/s 761 mmHg 79%
    22:00 +1°C° 0.1 mm 3 m/s 761 mmHg 79%
    23:00 +1°C° 0.1 mm 3 m/s 761 mmHg 80%

    18 Novembro, Domingo

    Tempo Temperatura Precipitação Vento Pressão Humidade
    00:00 +1°C° 0.1 mm 3 m/s 761 mmHg 80%
    01:00 +1°C° 0.1 mm 3 m/s 761 mmHg 81%
    02:00 +1°C° 0.1 mm 3 m/s 760 mmHg 81%
    03:00 +2°C° 0.1 mm 3 m/s 760 mmHg 81%
    04:00 +2°C° 0.1 mm 3 m/s 760 mmHg 81%
    05:00 +2°C° 0.1 mm 3 m/s 760 mmHg 81%
    06:00 +2°C° 0.1 mm 3 m/s 760 mmHg 81%
    07:00 +3°C° 0 mm 3 m/s 760 mmHg 77%
    08:00 +3°C° 0 mm 4 m/s 760 mmHg 73%
    09:00 +4°C° 0 mm 4 m/s 761 mmHg 68%
    10:00 +5°C° 0.1 mm 4 m/s 760 mmHg 67%
    11:00 +5°C° 0.1 mm 4 m/s 760 mmHg 65%
    12:00 +5°C° 0.1 mm 5 m/s 760 mmHg 64%
    13:00 +5°C° 0.1 mm 5 m/s 760 mmHg 65%
    14:00 +5°C° 0.1 mm 5 m/s 760 mmHg 66%
    15:00 +5°C° 0.1 mm 5 m/s 760 mmHg 68%
    16:00 +4°C° 0 mm 4 m/s 760 mmHg 71%
    17:00 +3°C° 0 mm 4 m/s 761 mmHg 74%
    18:00 +1°C° 0 mm 4 m/s 761 mmHg 77%
    19:00 +1°C° 0 mm 4 m/s 761 mmHg 78%
    20:00 +2°C° 0 mm 3 m/s 761 mmHg 79%
    21:00 +1°C° 0 mm 3 m/s 762 mmHg 80%
    22:00 +1°C° 0 mm 3 m/s 762 mmHg 81%
    23:00 +1°C° 0 mm 3 m/s 762 mmHg 81%

    19 Novembro, Segunda-feira

    Tempo Temperatura Precipitação Vento Pressão Humidade
    00:00 +1°C° 0 mm 3 m/s 762 mmHg 82%
    01:00 +2°C° 0 mm 2 m/s 762 mmHg 82%
    02:00 +2°C° 0 mm 2 m/s 762 mmHg 82%
    03:00 +1°C° 0 mm 2 m/s 762 mmHg 83%
    04:00 +1°C° 0 mm 2 m/s 762 mmHg 83%
    05:00 +1°C° 0 mm 2 m/s 762 mmHg 83%
    06:00 +2°C° 0 mm 1 m/s 762 mmHg 83%
    07:00 +3°C° 0 mm 1 m/s 762 mmHg 80%
    08:00 +3°C° 0 mm 2 m/s 762 mmHg 76%
    09:00 +4°C° 0 mm 2 m/s 762 mmHg 72%
    10:00 +6°C° 0 mm 1 m/s 761 mmHg 70%
    11:00 +6°C° 0 mm 1 m/s 761 mmHg 67%
    12:00 +7°C° 0 mm 1 m/s 760 mmHg 65%
    13:00 +6°C° 0 mm 1 m/s 760 mmHg 66%
    14:00 +6°C° 0 mm 1 m/s 760 mmHg 68%
    15:00 +6°C° 0 mm 1 m/s 759 mmHg 70%
    16:00 +5°C° 0 mm 1 m/s 759 mmHg 72%
    17:00 +5°C° 0 mm 1 m/s 760 mmHg 74%
    18:00 +4°C° 0 mm 1 m/s 760 mmHg 76%
    19:00 +4°C° 0 mm 1 m/s 760 mmHg 77%
    20:00 +3°C° 0 mm 1 m/s 760 mmHg 78%
    21:00 +3°C° 0 mm 1 m/s 760 mmHg 79%
    22:00 +3°C° 0.1 mm 1 m/s 760 mmHg 80%
    23:00 +2°C° 0.1 mm 2 m/s 759 mmHg 81%
    Mostrar mais